(2021 CJ) |
Classification: Apollo [NEO] SPK-ID: 54109943 |
[ hide orbit diagram ]
For accurate long-term ephemerides, please instead use our Horizons system.This orbit viewer was implemented using two-body methods, and hence should not be used for determining accurate long-term trajectories (over several years or decades) or planetary encounter circumstances.
Orbital Elements at Epoch 2459253.5 (2021-Feb-08.0) TDB
Reference: JPL 5 (heliocentric ecliptic J2000)
Element | Value | Uncertainty (1-sigma) | Units |
e | .5192846778248497 | 0.0013118 | |
a | 2.08915354120779 | 0.0058001 | au |
q | 1.004288117635059 | 4.7636e-05 | au |
i | 13.17280122474547 | 0.02278 | deg |
node | 135.8761474505614 | 0.0011822 | deg |
peri | 343.7199185230765 | 0.0026338 | deg |
M | 5.310172685668795 | 0.024372 | deg |
tp | 2459237.231028076521 (2021-Jan-22.73102808) | 0.006923 | TDB |
period | 1102.945278645829 3.02 | 4.5931 0.01258 | d yr |
n | .3263987860231831 | 0.0013593 | deg/d |
Q | 3.174018964780521 | 0.0088119 | au |
|
| | Orbit Determination Parameters
Additional Information
|
[ show covariance matrix ]
Physical Parameter Table
Parameter |
Symbol |
Value |
Units |
Sigma |
Reference |
Notes |
absolute magnitude |
H |
26.23 |
|
.31804 |
E2021-CK0 |
autocmod 2.8 |
|
[ show close-approach data ]
|